This demonstration page uses our WeatherBlox Daily Observations layout. Learn more.

Left ArrowRight Arrow

39.08367, -84.50855

Hourly Observations for June 28, 2015

Temp ( °F °C ) Dew Point ( °F °C ) Humidity (%) Winds ( mph kmh ) Pressure ( in mb ) Visibility ( mi km ) Precip ( " mm )
12:53 am 00:53 Mostly Cloudy 63 17.2 52 11.1 68 68 W 10 17 29.89 1012 10 16 N/A
1:53 am 01:53 Mostly Clear 63 17.2 52 11.1 68 68 W 8 13 29.88 1012 10 16 N/A
2:53 am 02:53 Clear 62 16.7 53 11.7 73 73 W 10 17 29.87 1012 10 16 N/A
3:53 am 03:53 Clear 61 16.1 53 11.7 75 75 WSW 8 13 29.87 1011 10 16 N/A
4:53 am 04:53 Clear 60 15.6 52 11.1 75 75 W 9 15 29.88 1012 10 16 N/A
5:53 am 05:53 Clear 59 15 52 11.1 78 78 W 9 15 29.90 1013 10 16 N/A
6:53 am 06:53 Sunny 60 15.6 51 10.6 72 72 VRB 5 7 29.91 1013 10 16 N/A
7:53 am 07:53 Sunny 62 16.7 52 11.1 70 70 W 9 15 29.94 1014 10 16 N/A
8:53 am 08:53 Sunny 65 18.3 53 11.7 66 66 WNW 10 17 29.95 1014 10 16 N/A
9:53 am 09:53 Sunny 68 20 54 12.2 61 61 W 10 17 29.96 1014 10 16 N/A
10:53 am 10:53 Sunny 71 21.7 52 11.1 51 51 WNW 6 9 29.95 1014 10 16 N/A
11:53 am 11:53 Sunny 74 23.3 53 11.7 48 48 NW 14 22 29.95 1014 10 16 N/A
12:53 pm 12:53 Mostly Sunny 75 23.9 52 11.1 45 45 NW 12 19 29.95 1014 10 16 N/A
1:53 pm 13:53 Mostly Sunny 76 24.4 52 11.1 43 43 WNW 12 19 29.93 1014 10 16 N/A
2:53 pm 14:53 Partly Cloudy 78 25.6 53 11.7 42 42 W 9 15 29.93 1014 10 16 N/A
3:53 pm 15:53 Mostly Sunny 78 25.6 53 11.7 42 42 NW 6 9 29.92 1013 10 16 N/A
4:53 pm 16:53 Mostly Cloudy 76 24.4 52 11.1 43 43 WNW 9 15 29.93 1013 10 16 N/A
5:53 pm 17:53 Mostly Sunny 78 25.6 53 11.7 42 42 W 7 11 29.91 1013 10 16 N/A
6:53 pm 18:53 Mostly Cloudy 75 23.9 53 11.7 46 46 SW 7 11 29.91 1013 10 16 N/A
7:53 pm 19:53 Sunny 73 22.8 55 12.8 53 53 WSW 5 7 29.92 1013 10 16 N/A
9:53 pm 21:53 Clear 65 18.3 59 15 81 81 N N/A 29.92 1013 10 16 N/A
10:53 pm 22:53 Clear 65 18.3 59 15 81 81 N N/A 29.94 1014 10 16 N/A
11:53 pm 23:53 Clear 64 17.8 59 15 84 84 N N/A 29.93 1014 10 16 N/A

Powered by AerisWeather